GAP2867 RPLL-RPVM

Flight info

Callsign GAP2867
Flight time N/A
Altitude 35000
Route RPLL/06 IPATA W25 BATAY BATAY3P
Aircraft A321/M-SDE3FGHIRWY/LB1

Departure

Time 2026-05-04 06:33
Airport Ninoy Aquino International Airport (RPLL)

Arrival

Time N/A
Airport Mactan Cebu International Airport (RPVM)
Time Latitude Longitude Altitude Speed Heading
2026-05-04 05:52 14.51024 121.01405 55 ft 0 kts 232°
2026-05-04 06:14 14.51074 121.01437 55 ft 2 kts 187°
2026-05-04 06:14 14.51089 121.01437 55 ft 2 kts 175°
2026-05-04 06:15 14.51104 121.01434 55 ft 2 kts 165°
2026-05-04 06:15 14.51118 121.01429 56 ft 2 kts 153°
2026-05-04 06:15 14.51130 121.01421 56 ft 2 kts 142°
2026-05-04 06:15 14.51137 121.01415 56 ft 1 kts 135°
2026-05-04 06:16 14.51139 121.01413 56 ft 0 kts 134°
2026-05-04 06:20 14.51124 121.01429 56 ft 2 kts 136°
2026-05-04 06:20 14.51108 121.01444 56 ft 3 kts 137°
2026-05-04 06:21 14.50989 121.01567 54 ft 9 kts 133°
2026-05-04 06:21 14.50939 121.01620 53 ft 11 kts 136°
2026-05-04 06:22 14.50875 121.01661 52 ft 10 kts 189°
2026-05-04 06:22 14.50826 121.01601 53 ft 11 kts 239°
2026-05-04 06:25 14.50027 121.00163 34 ft 20 kts 240°
2026-05-04 06:25 14.49958 121.00035 31 ft 17 kts 239°
2026-05-04 06:26 14.49899 120.99965 30 ft 9 kts 193°
2026-05-04 06:26 14.49877 120.99966 30 ft 0 kts 153°
2026-05-04 06:27 14.49811 121.00000 30 ft 6 kts 153°
2026-05-04 06:28 14.49798 121.00032 31 ft 4 kts 71°
2026-05-04 06:28 14.49811 121.00060 32 ft 3 kts 62°
2026-05-04 06:28 14.49820 121.00077 33 ft 0 kts 61°
2026-05-04 06:28 14.49820 121.00078 33 ft 0 kts 61°
2026-05-04 06:30 14.49820 121.00077 33 ft 0 kts 61°
2026-05-04 06:31 14.49831 121.00098 34 ft 9 kts 62°
2026-05-04 06:31 14.49953 121.00317 33 ft 69 kts 60°
2026-05-04 06:31 14.50305 121.00950 38 ft 131 kts 61°
2026-05-04 06:31 14.50851 121.01932 55 ft 182 kts 62°
2026-05-04 06:32 14.51500 121.03075 611 ft 181 kts 64°
2026-05-04 06:33 14.56673 121.12493 4744 ft 247 kts 65°
2026-05-04 06:34 14.57247 121.14172 5438 ft 251 kts 76°
2026-05-04 06:34 14.57528 121.15957 6121 ft 255 kts 82°
2026-05-04 06:34 14.57737 121.17776 6634 ft 266 kts 82°
2026-05-04 06:34 14.57953 121.19749 6895 ft 286 kts 82°
2026-05-04 06:35 14.58194 121.21895 6938 ft 314 kts 82°
2026-05-04 06:36 14.47842 121.34177 11872 ft 291 kts 141°
2026-05-04 06:37 14.46261 121.35467 12144 ft 298 kts 138°
2026-05-04 06:37 14.44587 121.36872 12161 ft 315 kts 139°
2026-05-04 06:37 14.42847 121.38291 12267 ft 328 kts 140°
2026-05-04 06:37 14.40984 121.39769 12443 ft 338 kts 140°
2026-05-04 06:38 14.39109 121.41228 12760 ft 342 kts 141°
2026-05-04 06:38 14.37194 121.42706 13195 ft 344 kts 141°
2026-05-04 06:40 14.23470 121.53205 16187 ft 358 kts 142°
2026-05-04 06:40 14.21450 121.54743 16626 ft 360 kts 142°
2026-05-04 06:40 14.19414 121.56293 17051 ft 362 kts 142°
2026-05-04 06:40 14.17382 121.57842 17450 ft 364 kts 142°
2026-05-04 06:41 14.15345 121.59394 17813 ft 366 kts 142°
2026-05-04 06:41 14.13299 121.60954 18187 ft 369 kts 142°
2026-05-04 06:41 14.11219 121.62537 18557 ft 371 kts 142°
2026-05-04 06:41 14.09138 121.64123 18923 ft 373 kts 142°
2026-05-04 06:42 14.07046 121.65716 19269 ft 375 kts 142°
2026-05-04 06:42 14.04950 121.67313 19627 ft 377 kts 142°
2026-05-04 06:42 14.02817 121.68938 19969 ft 379 kts 142°
2026-05-04 06:44 13.87664 121.80494 22168 ft 394 kts 142°
2026-05-04 06:44 13.85464 121.82165 22473 ft 396 kts 143°
2026-05-04 06:44 13.83207 121.83867 22780 ft 398 kts 143°
2026-05-04 06:45 13.80984 121.85539 23091 ft 400 kts 143°
2026-05-04 06:45 13.78738 121.87230 23396 ft 402 kts 143°
2026-05-04 06:45 13.76456 121.88949 23696 ft 404 kts 143°
2026-05-04 06:45 13.74190 121.90655 23997 ft 406 kts 143°
2026-05-04 06:46 13.71903 121.92378 24300 ft 407 kts 143°
2026-05-04 06:46 13.69609 121.94108 24592 ft 409 kts 143°
2026-05-04 06:46 13.67302 121.95844 24902 ft 410 kts 143°
2026-05-04 06:46 13.65004 121.97575 25185 ft 412 kts 143°
2026-05-04 06:48 13.48604 122.09926 27027 ft 424 kts 143°
2026-05-04 06:48 13.46197 122.11734 27260 ft 426 kts 143°
2026-05-04 06:49 13.43787 122.13545 27483 ft 429 kts 143°
2026-05-04 06:50 13.26786 122.26321 29241 ft 436 kts 143°
2026-05-04 06:51 13.24344 122.28155 29457 ft 438 kts 143°
2026-05-04 06:51 13.21860 122.30018 29666 ft 440 kts 143°
2026-05-04 06:51 13.19389 122.31871 29883 ft 441 kts 143°
2026-05-04 06:51 13.16898 122.33740 30090 ft 443 kts 143°
2026-05-04 06:52 13.14412 122.35603 30297 ft 444 kts 143°
2026-05-04 06:52 13.11917 122.37473 30519 ft 445 kts 143°
2026-05-04 06:52 13.09402 122.39358 30725 ft 447 kts 143°
2026-05-04 06:52 13.06891 122.41240 30967 ft 447 kts 144°
2026-05-04 06:53 13.04398 122.43107 31241 ft 447 kts 144°
2026-05-04 06:53 13.01886 122.44989 31520 ft 446 kts 144°
2026-05-04 06:53 12.99377 122.46868 31785 ft 446 kts 144°
2026-05-04 06:53 12.96839 122.48767 32062 ft 446 kts 144°
2026-05-04 06:54 12.94356 122.50626 32335 ft 445 kts 144°
2026-05-04 06:54 12.92683 122.51878 32516 ft 445 kts 144°